< < Back
Terminal Aerodrome Forecast


Current Version              Previous Versions:   1  2  3  4  5  6  7  8  9  

Terminal Aerodrome Forecast

116
FTUS44 KHUN 232320
TAFHSV
TAF
KHSV 232320Z 2400/2424 VRB04KT P6SM SCT040 SCT120
     FM241500 17005KT P6SM SCT040 SCT250=

Latest METAR

004
SAUS80 KWBC 241300
MTRHSV
METAR KHSV 241253Z 12005KT 10SM SCT250 25/21 A3023 RMK AO2 SLP229
T02500206


USA.gov is the U.S. government's official web portal to all federal, state and local government web resources and services.